STARLINK-3768, 52301

Orbit data source: Space-Track

STARLINK-3768, 52301 is a payload satellite owned by SpaceX/Seattle (US) in LEO that was launched on Thu, 21 Apr 2022 UTC via an FALCON 9 launch vehicle from the Air Force Eastern Test Range (AFETR). Payload-class satellites include a variety of spacecraft equipped with specific instruments for various scientific and technological missions. These include communications satellites like Starlink; space stations such as the ISS; scientific satellites like the Hubble; Earth observation satellites from companies like Planet Labs, Umbra, and HawkEye 360; GPS; miniature CubeSats for education and research; and military/defense satellites.

Loading next visibility...
Identifier
52301, 2022-041AS
Orbit
LEO
Country
Flag of USUS
Related business
Manufacturer
SpaceX/Seattle
Mission
Operational Commercial Communications
Bus & Motor
STARLINK, Unknown motor
Mass
297 kg wet, ~275 kg dry
Launch date (UTC)
2022-04-21 (4 years ago)
Launch vehicle
FALCON 9
Launch site
Air Force Eastern Test Range (AFETR)
Object type
Payload
Rocket body
Debris
Shape & HBR
Box + 1 Pan, 10.1 m
Radar Cross Section
11.087 m², Large (>1 m²)

Expand to show TLE details & history
Last TLE update: 19 hours ago

TLE from 19 hours ago
0 STARLINK-3768
1 52301U 22041AS  26175.19007975  .00000225  00000-0  32256-4 0  9990
2 52301  53.1602 340.8816 0001334  88.5280 271.5864 15.08836696230585
Epoch: 2026-06-24T04:33Z
TLE epoch observation values (Epoch: 2026-06-24T04:33:42.890Z)
Latitude
-0.00004°
Longitude
0.10201°
Altitude
540.619 km
Speed
7.593 km/s
True Right ascension
22h 43m 31s
True Declination
0° 00' 00"
Sunlit
Object was in daylight at epoch
Visualization orbit readout
Latitude
Unknown
Longitude
Unknown
Altitude
Unknown
Speed
Unknown
Apparent Right ascension
Unknown
Apparent Declination
Unknown
Sunlit
N/A
Visualization observer readout
Local Sidereal Time
10:34:56
Azimuth
Unknown
Elevation
Unknown
Doppler factor
Unknown
Orbital elements
Apogee altitude
540.93 km
Perigee altitude
539.085 km
Semi-major axis
6,918.145 km
Eccentricity
0.00013
Inclination
53.1602°
RAAN
340.8816°
Arg. of periapsis
88.528°
True anomaly
271.57112°
Mean anomaly
271.5864°
Eccentric anomaly
271.57876°
Mean motion
3.77189 °/min
Orbital period
95.44 mins
BSTAR
0.000032256
Loading maneuver chart data...
Computing Atmospheric mass density...
Loading historical data...
Loading historical data...
Loading historical data...
Loading historical data...
Loading historical data...
Loading historical data...
Loading historical data...

Documentation

Showing up to 5 results
|